HEMAVAN current weather conditions

sailwx.info

Air temperature -6.0° C
Visibility: greater than 5.4 NM
Dewpoint -7.0° C

Last reported at 2014-Sep-23 00:20 UTC.
Time now 2014-Sep-23 02:20 UTC

Location: N 65°48' E 015°05'.
View on Google Maps.

See reports from other nearby stations

  
Tides and Currents Weather Stations Pressure Air Temp Water Temp Dewpoint Dewpoint Depression Visibility Wind Speed Wind Dir Waves Ship Positions
date/time (UTC)wind fromknots sea level pressurealtimeterstation pressurevisibilityair tempwater tempwave heightnotes
2014-Sep-23 01:20 140 2 5.4-6.0
2014-Sep-23 00:20 5.4-6.0
2014-Sep-22 23:20 5.4-6.0
2014-Sep-22 22:20 5.4-5.0
2014-Sep-22 21:50 5.4-5.0
2014-Sep-22 21:20 5.4-4.0
2014-Sep-22 20:50 5.4-4.0
2014-Sep-22 20:20 5.4-3.0
2014-Sep-22 19:50 5.4-3.0
2014-Sep-22 19:20 5.4-2.0
2014-Sep-22 18:50 5.4-3.0
2014-Sep-22 18:20 5.4-2.0
2014-Sep-22 17:50 5.4-1.0
2014-Sep-22 17:20 5.4 1.0
2014-Sep-22 16:50 290 6 5.4 2.0
2014-Sep-22 16:20 280 6 5.4 3.0
2014-Sep-22 15:50 350 7 5.4 4.0
2014-Sep-22 15:20 330 10 5.4 4.0
2014-Sep-22 14:50 310 9 5.4 4.0
2014-Sep-22 14:20 320 10 5.4 4.0
2014-Sep-22 13:50 280 8 5.4 5.0
2014-Sep-22 13:20 260 6 5.4 5.0
2014-Sep-22 12:50 300 7 5.4 5.0
2014-Sep-22 12:20 210 5 5.4 4.0
2014-Sep-22 11:50 300 8 5.4 3.0
2014-Sep-22 11:20 310 9 5.4 2.0
2014-Sep-22 10:50 310 8 5.4 3.0
2014-Sep-22 10:20 290 4 5.4 2.0
2014-Sep-22 09:50 030 7 5.4 2.0 Snow grains.
2014-Sep-22 09:20 030 6 5.4 3.0
2014-Sep-22 08:50 300 4 5.4 4.0
2014-Sep-22 08:20 320 5 5.4 4.0
2014-Sep-22 07:50 270 5 5.4 3.0
2014-Sep-22 07:20 270 6 5.4 3.0
2014-Sep-22 06:50 260 4 5.4 3.0
2014-Sep-22 06:20 340 5 5.4 2.0
2014-Sep-22 05:50 340 5 5.4 3.0
2014-Sep-22 05:20 350 8 5.4 3.0
2014-Sep-22 04:50 350 7 5.4 2.0
2014-Sep-22 04:20 340 3 5.4 1.0
2014-Sep-22 03:50 5.4 1.0
2014-Sep-22 03:20 5.4-0.0
2014-Sep-22 02:50 5.4-0.0
2014-Sep-22 02:20 140 2 5.4-1.0
2014-Sep-22 01:50 5.4-1.0
2014-Sep-22 01:20 5.4-0.0
2014-Sep-22 00:50 120 1 5.4-0.0
2014-Sep-22 00:20 320 3 5.4-0.0
2014-Sep-21 23:50 310 5 5.4 2.0
2014-Sep-21 23:20 310 4 5.4 1.0
2014-Sep-21 22:50 350 5 5.4-0.0
2014-Sep-21 22:20 320 4 5.4 1.0
2014-Sep-21 21:50 320 6 5.4 2.0
2014-Sep-21 21:20 290 9 5.4 2.0
2014-Sep-21 20:50 320 11 5.4 3.0
2014-Sep-21 20:20 290 11 5.4 3.0
2014-Sep-21 19:50 270 9 5.4 3.0
2014-Sep-21 19:20 310 14 5.4 3.0
2014-Sep-21 18:50 310 13 5.4 4.0
2014-Sep-21 18:20 320 12 5.4 4.0
2014-Sep-21 17:50 320 9 5.4 4.0
2014-Sep-21 17:20 320 10 5.4 4.0
2014-Sep-21 16:50 340 15 5.4 5.0
2014-Sep-21 16:20 330 12 5.4 5.0
2014-Sep-21 15:50 330 11 5.4 6.0
2014-Sep-21 15:20 350 12 5.4 7.0
2014-Sep-21 14:50 330 11 5.4 7.0
2014-Sep-21 14:20 350 11 5.4 7.0
2014-Sep-21 13:50 340 8 5.4 7.0
2014-Sep-21 13:20 340 10 5.4 7.0
2014-Sep-21 12:50 320 10 5.4 7.0
2014-Sep-21 12:20 310 11 5.4 7.0
2014-Sep-21 11:50 310 13 5.4 7.0
2014-Sep-21 11:20 310 12 5.4 8.0
2014-Sep-21 10:50 320 14 5.4 8.0
2014-Sep-21 10:20 310 13 5.4 8.0
2014-Sep-21 09:50 320 17 5.4 7.0
2014-Sep-21 09:20 310 9 5.4 7.0 Light rain.
2014-Sep-21 08:50 320 9 5.4 7.0 Drizzle.
2014-Sep-21 08:20 320 10 4.9 7.0 Drizzle.
2014-Sep-21 07:50 310 10 5.4 8.0 Drizzle.
2014-Sep-21 07:20 360 8 2.3 8.0 Heavy drizzle.
2014-Sep-21 06:50 360 4 5.4 9.0
2014-Sep-21 06:20 4.9 8.0 Mist.
2014-Sep-21 05:50 5.4 8.0
2014-Sep-21 05:20 060 5 5.4 8.0
2014-Sep-21 04:50 3.8 8.0 Light rain.
2014-Sep-21 04:20 2.3 7.0 Drizzle.
2014-Sep-21 03:50 050 4 5.4 8.0
2014-Sep-21 03:20 2.7 8.0 Light rain.
2014-Sep-21 02:50 5.4 8.0 Drizzle.
2014-Sep-21 02:20 2.7 8.0 Drizzle.